LEMUR-2-ETHANOAKES (46298 NORAD) Tracking and Keplerian Element Data

This shows tracking and keplerian element data for the satellite.

Feedback or suggestion? Click here.




ElementValue
Catalog46298
NameLEMUR-2-ETHANOAKES
Epoch Orbit313
Epoch Day268.47494938
Epoch Year2020
RAAN341.2286
Inclination97.518
Eccentricity0.0001303
Argument of Perigee138.0454
Mean Anonmoly222.0875
Mean Motion15.10547958
Decay Rate1.496E-05
L11 46298U 20061AC 20268.47494938 .00001496 00000-0 94541-4 0 9991
L22 46298 97.5180 341.2286 0001303 138.0454 222.0875 15.10547958 3137

Live tracking and technical data element details for LEMUR-2-ETHANOAKES (NORAD 46298). LEMUR-2-ETHANOAKES can be tracked NOW for your location showing map with azimuth and elevation plus other details from your city location.

Track the satellite on the map from your city or location and see movement details for azimuth, elevation, latitude, longitude, range, height, and movement on the map or in text.







IsCatalogInMostPopularTable: catalog: 46298, numindb: -1

Insert: records affected: 1


GetName: 46298 LEMUR-2-ETHANOAKES

Hit Count: inserted at: Sat, 26 Sep 2020 15:25:10 GMT